EEL RIVER CAMP CA US current weather conditions

sailwx.info

Wind at 2 knots gusting 5

Air temperature 7.8° C
Dewpoint 4.7° C

Last reported at 2017-Apr-28 11:28 UTC.
Time now 2017-Apr-28 12:19 UTC

Location: N 40°08' W 123°49'.
View on Google Maps.

See reports from other nearby stations

  
Tides and Currents Weather Stations Pressure Air Temp Water Temp Dewpoint Dewpoint Depression Visibility Wind Speed Wind Dir Waves Ship Positions
date/time (UTC)wind fromknots sea level pressurealtimeterstation pressurevisibilityair tempwater tempwave heightnotes
2017-Apr-28 11:28 7.8
2017-Apr-28 10:28 072 2 gusting 9 7.8
2017-Apr-28 09:28 214 1 gusting 7 7.8
2017-Apr-28 08:28 303 1 gusting 5 7.2
2017-Apr-28 07:28 291 0 gusting 10 8.3
2017-Apr-28 06:28 266 1 gusting 5 8.3
2017-Apr-28 05:28 194 1 gusting 8 8.9
2017-Apr-28 04:28 170 3 gusting 10 10.0
2017-Apr-28 03:28 226 1 gusting 12 10.6
2017-Apr-28 02:28 009 6 gusting 15 12.8
2017-Apr-28 01:28 005 5 gusting 18 15.0
2017-Apr-28 00:28 16.1
2017-Apr-27 23:28 356 6 gusting 15 15.6
2017-Apr-27 22:28 007 6 gusting 18 16.7
2017-Apr-27 21:28 326 7 gusting 15 17.8
2017-Apr-27 20:28 288 6 gusting 17 17.2
2017-Apr-27 19:28 334 6 gusting 14 16.7
2017-Apr-27 18:28 288 3 gusting 13 14.4
2017-Apr-27 17:28 024 5 gusting 14 13.3
2017-Apr-27 16:28 117 2 gusting 7 13.3
2017-Apr-27 15:28 106 1 gusting 7 11.1
2017-Apr-27 14:28 057 2 gusting 6 8.9
2017-Apr-27 13:28 277 2 gusting 4 6.1
2017-Apr-27 12:28 255 1 gusting 3 6.1
2017-Apr-27 11:28 251 0 gusting 7 6.1
2017-Apr-27 10:28 273 2 gusting 5 6.7
2017-Apr-27 09:28 192 0 gusting 3 7.2
2017-Apr-27 08:28 245 2 gusting 3 8.3
2017-Apr-27 07:28 224 1 gusting 9 10.0
2017-Apr-27 06:28 355 3 gusting 12 10.6
2017-Apr-27 05:28 322 2 gusting 9 10.6
2017-Apr-27 04:28 274 1 gusting 8 11.1
2017-Apr-27 03:28 003 4 gusting 11 11.7
2017-Apr-27 02:28 033 5 gusting 12 13.3
2017-Apr-27 01:28 036 5 gusting 12 15.0
2017-Apr-27 00:28 083 4 gusting 8 15.0
2017-Apr-26 23:28 223 4 gusting 9 16.1
2017-Apr-26 22:28 248 4 gusting 8 16.1
2017-Apr-26 21:28 215 3 gusting 8 15.6
2017-Apr-26 20:28 247 5 gusting 10 16.1
2017-Apr-26 19:28 242 3 gusting 9 17.2
2017-Apr-26 18:28 194 4 gusting 8 16.1
2017-Apr-26 17:28 192 1 gusting 6 14.4
2017-Apr-26 16:28 148 1 gusting 4 13.9
2017-Apr-26 15:28 241 0 gusting 4 12.8
2017-Apr-26 14:28 009 0 gusting 2 12.2
2017-Apr-26 13:28 273 11.7
2017-Apr-26 12:28 263 11.7